Tracking 32932 objects as of 15-Jan-2026
HD Live streaming from Space Station
objects crossing your sky now

THORAD AGENA D DEB

Track THORAD AGENA D DEB now!
10-day predictions


NORAD ID: 21721
Int'l Code: 1970-025QG
Perigee: 999.9 km
Apogee: 1,007.1 km
Inclination: 100.1 °
Period: 105.0 minutes
Semi major axis: 7374 km
RCS: 0.015 m2 (small)
Launch date: April 8, 1970
Source: United States (US)
Launch site: AIR FORCE WESTERN TEST RANGE (AFWTR)

Note: This is SATELLITE DEBRIS
Your satellite tracking list
Your tracking list is empty




NASA's NSSDC Master Catalog

Two Line Element Set (TLE):
1 21721U 70025QG  26014.30814223  .00000878  00000-0  10397-2 0  9998
2 21721 100.1013 317.9430 0004880 316.5308 197.4164 13.70905706703116
Source of the keplerian elements: AFSPC